| time (UTC) | temp F | wind direction | speed MPH | gust MPH | rain 1hr in | rain 24hr in | rain mn in | humidity % | barometer mb |
| 20260505225330 | 85 | 126 | 3.0 | 10.0 | 0.00 | 0.00 | 0.00 | 73 | 1005.8 |
| 20260505224337 | 85 | 193 | 5.0 | 13.0 | 0.00 | 0.00 | 0.00 | 73 | 1005.7 |
| 20260505223328 | 85 | 127 | 4.0 | 15.0 | 0.00 | 0.00 | 0.00 | 73 | 1005.9 |
| 20260505222335 | 85 | 214 | 5.0 | 14.0 | 0.00 | 0.00 | 0.00 | 72 | 1005.7 |
| 20260505221326 | 85 | 162 | 5.0 | 13.0 | 0.00 | 0.00 | 0.00 | 72 | 1005.7 |
| 20260505220338 | 86 | 127 | 5.0 | 11.0 | 0.00 | 0.00 | 0.00 | 71 | 1005.8 |
| 20260505215348 | 86 | 221 | 5.0 | 12.0 | 0.00 | 0.00 | 0.00 | 71 | 1005.8 |
| 20260505214339 | 86 | 116 | 7.0 | 15.0 | 0.00 | 0.00 | 0.00 | 71 | 1006.0 |
| 20260505213350 | 87 | 154 | 5.0 | 12.0 | 0.00 | 0.00 | 0.00 | 71 | 1005.9 |
| 20260505212331 | 87 | 121 | 4.0 | 12.0 | 0.00 | 0.00 | 0.00 | 70 | 1006.2 |
| 20260505211322 | 87 | 245 | 6.0 | 14.0 | 0.00 | 0.00 | 0.00 | 71 | 1006.4 |
| 20260505210329 | 86 | 245 | 4.0 | 11.0 | 0.00 | 0.00 | 0.00 | 72 | 1006.5 |
| 20260505205339 | 86 | 109 | 6.0 | 16.0 | 0.00 | 0.00 | 0.00 | 72 | 1006.5 |
| 20260505204331 | 86 | 179 | 4.0 | 13.0 | 0.00 | 0.00 | 0.00 | 72 | 1006.7 |
| 20260505203322 | 85 | 115 | 7.0 | 13.0 | 0.00 | 0.00 | 0.00 | 72 | 1006.6 |
| 20260505202334 | 86 | 129 | 6.0 | 12.0 | 0.00 | 0.00 | 0.00 | 71 | 1006.9 |
| 20260505201324 | 87 | 217 | 5.0 | 11.0 | 0.00 | 0.00 | 0.00 | 69 | 1007.0 |
| 20260505200333 | 87 | 156 | 5.0 | 13.0 | 0.00 | 0.00 | 0.00 | 68 | 1007.1 |
| 20260505195324 | 86 | 130 | 5.0 | 12.0 | 0.00 | 0.00 | 0.00 | 71 | 1007.1 |
| 20260505194336 | 85 | 231 | 8.0 | 16.0 | 0.00 | 0.00 | 0.00 | 70 | 1007.4 |
| 20260505193327 | 85 | 157 | 5.0 | 14.0 | 0.00 | 0.00 | 0.00 | 72 | 1007.5 |
| 20260505192337 | 85 | 206 | 5.0 | 10.0 | 0.00 | 0.00 | 0.00 | 71 | 1007.6 |
| 20260505191328 | 84 | 158 | 6.0 | 13.0 | 0.00 | 0.00 | 0.00 | 73 | 1007.7 |
| 20260505190338 | 84 | 153 | 5.0 | 11.0 | 0.00 | 0.00 | 0.00 | 72 | 1007.7 |
| 20260505185329 | 83 | 169 | 7.0 | 14.0 | 0.00 | 0.00 | 0.00 | 72 | 1007.7 |
| 20260505184340 | 84 | 146 | 5.0 | 13.0 | 0.00 | 0.00 | 0.00 | 72 | 1007.9 |
| 20260505183323 | 82 | 250 | 5.0 | 12.0 | 0.00 | 0.00 | 0.00 | 74 | 1008.1 |
| 20260505182343 | 82 | 253 | 6.0 | 14.0 | 0.00 | 0.00 | 0.00 | 74 | 1008.3 |
| 20260505181325 | 81 | 201 | 3.0 | 14.0 | 0.00 | 0.00 | 0.00 | 77 | 1008.5 |
| 20260505180336 | 81 | 218 | 5.0 | 12.0 | 0.00 | 0.00 | 0.00 | 77 | 1008.5 |
| 20260505175328 | 80 | 207 | 5.0 | 9.0 | 0.00 | 0.00 | 0.00 | 79 | 1008.6 |
| 20260505174337 | 79 | 243 | 7.0 | 13.0 | 0.00 | 0.00 | 0.00 | 80 | 1008.8 |
| 20260505173328 | 78 | 238 | 7.0 | 14.0 | 0.00 | 0.00 | 0.00 | 81 | 1008.9 |
| 20260505172340 | 78 | 240 | 6.0 | 16.0 | 0.00 | 0.00 | 0.00 | 82 | 1008.8 |
| 20260505171330 | 77 | 155 | 5.0 | 13.0 | 0.00 | 0.00 | 0.00 | 83 | 1008.9 |
| 20260505170322 | 77 | 221 | 6.0 | 12.0 | 0.00 | 0.00 | 0.00 | 84 | 1008.9 |
| 20260505165333 | 76 | 250 | 3.0 | 9.0 | 0.00 | 0.00 | 0.00 | 85 | 1008.9 |
| 20260505164323 | 76 | 222 | 3.0 | 12.0 | 0.00 | 0.00 | 0.00 | 85 | 1008.9 |
| 20260505163330 | 76 | 231 | 3.0 | 9.0 | 0.00 | 0.00 | 0.00 | 86 | 1008.9 |
| 20260505162322 | 75 | 139 | 4.0 | 10.0 | 0.00 | 0.00 | 0.00 | 87 | 1009.0 |
| 20260505161334 | 74 | 212 | 3.0 | 10.0 | 0.00 | 0.00 | 0.00 | 87 | 1009.0 |
| 20260505160345 | 74 | 146 | 5.0 | 12.0 | 0.00 | 0.00 | 0.00 | 87 | 1008.9 |
| 20260505153324 | 73 | 194 | 5.0 | 9.0 | 0.00 | 0.00 | 0.00 | 89 | 1008.9 |
| 20260505152345 | 73 | 217 | 4.0 | 8.0 | 0.00 | 0.00 | 0.00 | 89 | 1008.9 |
| 20260505151327 | 73 | 235 | 2.0 | 7.0 | 0.00 | 0.00 | 0.00 | 90 | 1009.0 |
| 20260505150347 | 73 | 212 | 5.0 | 11.0 | 0.00 | 0.00 | 0.00 | 90 | 1008.9 |
| 20260505140340 | 72 | 224 | 6.0 | 11.0 | 0.00 | 0.00 | 0.00 | 91 | 1008.4 |
| 20260505124348 | 71 | 140 | 3.0 | 14.0 | 0.00 | 0.00 | 0.00 | 91 | 1008.0 |
| 20260505123338 | 71 | 206 | 3.0 | 11.0 | 0.00 | 0.00 | 0.00 | 92 | 1007.8 |
| 20260505122345 | 71 | 190 | 4.0 | 11.0 | 0.00 | 0.00 | 0.00 | 92 | 1007.6 |
| 20260505121328 | 70 | 198 | 3.0 | 10.0 | 0.00 | 0.00 | 0.00 | 92 | 1007.5 |
| 20260505120348 | 70 | 136 | 2.0 | 8.0 | 0.00 | 0.00 | 0.00 | 92 | 1007.4 |
| 20260505115329 | 70 | 124 | 5.0 | 11.0 | 0.00 | 0.00 | 0.00 | 92 | 1007.1 |
| 20260505114341 | 70 | 158 | 6.0 | 11.0 | 0.00 | 0.00 | 0.00 | 92 | 1007.0 |
| 20260505113332 | 71 | 160 | 3.0 | 10.0 | 0.00 | 0.00 | 0.00 | 91 | 1007.1 |
| 20260505112324 | 71 | 160 | 5.0 | 9.0 | 0.00 | 0.00 | 0.00 | 91 | 1007.1 |
| 20260505111334 | 71 | 139 | 3.0 | 15.0 | 0.00 | 0.00 | 0.00 | 91 | 1007.0 |
| 20260505110323 | 71 | 230 | 3.0 | 13.0 | 0.00 | 0.00 | 0.00 | 91 | 1007.0 |
| 20260505101339 | 71 | 188 | 4.0 | 7.0 | 0.00 | 0.00 | 0.00 | 90 | 1007.6 |
| 20260505100330 | 71 | 160 | 4.0 | 12.0 | 0.00 | 0.00 | 0.00 | 90 | 1007.6 |
| 20260505095342 | 71 | 172 | 3.0 | 10.0 | 0.00 | 0.00 | 0.00 | 91 | 1007.6 |
| 20260505094333 | 71 | 146 | 3.0 | 11.0 | 0.00 | 0.00 | 0.00 | 91 | 1007.6 |
| 20260505093345 | 71 | 120 | 3.0 | 8.0 | 0.00 | 0.00 | 0.00 | 91 | 1007.7 |
| 20260505092327 | 71 | 184 | 3.0 | 11.0 | 0.00 | 0.00 | 0.00 | 90 | 1007.6 |
| 20260505091348 | 71 | 237 | 4.0 | 11.0 | 0.00 | 0.00 | 0.00 | 90 | 1007.7 |
| 20260505090330 | 71 | 165 | 6.0 | 12.0 | 0.00 | 0.00 | 0.00 | 90 | 1008.0 |
| 20260505085349 | 71 | 150 | 3.0 | 10.0 | 0.00 | 0.00 | 0.00 | 90 | 1007.8 |
| 20260505084331 | 71 | 131 | 4.0 | 12.0 | 0.00 | 0.00 | 0.00 | 90 | 1007.9 |
| 20260505083323 | 71 | 114 | 5.0 | 15.0 | 0.00 | 0.00 | 0.00 | 89 | 1007.9 |
| 20260505082331 | 71 | 195 | 3.0 | 11.0 | 0.00 | 0.00 | 0.00 | 89 | 1008.0 |
| 20260505081323 | 71 | 168 | 7.0 | 16.0 | 0.00 | 0.00 | 0.00 | 89 | 1008.2 |
| 20260505080333 | 71 | 160 | 6.0 | 12.0 | 0.00 | 0.00 | 0.00 | 89 | 1008.1 |
| 20260505075325 | 71 | 127 | 5.0 | 13.0 | 0.00 | 0.00 | 0.00 | 89 | 1008.1 |
| 20260505074332 | 71 | 203 | 7.0 | 14.0 | 0.00 | 0.00 | 0.00 | 89 | 1008.3 |
| 20260505073322 | 71 | 162 | 5.0 | 19.0 | 0.00 | 0.00 | 0.00 | 89 | 1008.4 |
| 20260505072333 | 71 | 217 | 7.0 | 13.0 | 0.00 | 0.00 | 0.00 | 89 | 1008.4 |
| 20260505071325 | 71 | 148 | 7.0 | 15.0 | 0.00 | 0.00 | 0.00 | 89 | 1008.6 |
| 20260505070335 | 71 | 122 | 5.0 | 14.0 | 0.00 | 0.00 | 0.00 | 89 | 1008.7 |
| 20260505065346 | 71 | 137 | 5.0 | 11.0 | 0.00 | 0.00 | 0.00 | 89 | 1008.8 |
| 20260505064338 | 71 | 184 | 6.0 | 16.0 | 0.00 | 0.00 | 0.00 | 88 | 1008.9 |
| 20260505063349 | 71 | 210 | 7.0 | 13.0 | 0.00 | 0.00 | 0.00 | 88 | 1008.8 |
| 20260505062341 | 72 | 173 | 6.0 | 16.0 | 0.00 | 0.00 | 0.00 | 88 | 1008.9 |
| 20260505061322 | 72 | 202 | 4.0 | 13.0 | 0.00 | 0.00 | 0.00 | 88 | 1009.0 |
| 20260505060332 | 72 | 178 | 6.0 | 15.0 | 0.00 | 0.00 | 0.00 | 88 | 1009.1 |
| 20260505055323 | 72 | 186 | 6.0 | 17.0 | 0.00 | 0.00 | 0.00 | 88 | 1009.1 |
| 20260505054333 | 72 | 179 | 6.0 | 16.0 | 0.00 | 0.00 | 0.00 | 88 | 1009.1 |
| 20260505053324 | 72 | 170 | 5.0 | 15.0 | 0.00 | 0.00 | 0.00 | 87 | 1009.0 |
| 20260505052336 | 72 | 160 | 6.0 | 19.0 | 0.00 | 0.00 | 0.00 | 87 | 1008.9 |
| 20260505051327 | 72 | 169 | 6.0 | 15.0 | 0.00 | 0.00 | 0.00 | 87 | 1009.1 |
| 20260505050337 | 72 | 99 | 8.0 | 16.0 | 0.00 | 0.00 | 0.00 | 87 | 1008.9 |
| 20260505041334 | 73 | 154 | 4.0 | 13.0 | 0.00 | 0.00 | 0.00 | 85 | 1009.0 |
| 20260505040326 | 73 | 150 | 6.0 | 12.0 | 0.00 | 0.00 | 0.00 | 84 | 1009.0 |
| 20260505035337 | 74 | 169 | 3.0 | 8.0 | 0.00 | 0.00 | 0.00 | 84 | 1009.1 |
| 20260505034345 | 74 | 192 | 4.0 | 11.0 | 0.00 | 0.00 | 0.00 | 83 | 1009.1 |
| 20260505033336 | 74 | 112 | 5.0 | 10.0 | 0.00 | 0.00 | 0.00 | 83 | 1009.1 |
| 20260505032343 | 74 | 91 | 3.0 | 11.0 | 0.00 | 0.00 | 0.00 | 82 | 1008.9 |
| 20260505031325 | 75 | 214 | 4.0 | 10.0 | 0.00 | 0.00 | 0.00 | 82 | 1008.9 |
| 20260505030345 | 75 | 165 | 6.0 | 12.0 | 0.00 | 0.00 | 0.00 | 81 | 1009.0 |
| 20260505025327 | 75 | 137 | 4.0 | 10.0 | 0.00 | 0.00 | 0.00 | 80 | 1008.9 |
| 20260505024347 | 75 | 110 | 4.0 | 12.0 | 0.00 | 0.00 | 0.00 | 78 | 1008.9 |
| 20260505023324 | 76 | 129 | 2.0 | 8.0 | 0.00 | 0.00 | 0.00 | 77 | 1008.9 |
| 20260505022334 | 76 | 143 | 3.0 | 9.0 | 0.00 | 0.00 | 0.00 | 76 | 1008.8 |
| 20260505021326 | 76 | 168 | 5.0 | 10.0 | 0.00 | 0.00 | 0.00 | 75 | 1008.8 |
| 20260505020336 | 76 | 150 | 4.0 | 11.0 | 0.00 | 0.00 | 0.00 | 75 | 1008.6 |
| 20260505015327 | 76 | 219 | 4.0 | 9.0 | 0.00 | 0.00 | 0.00 | 74 | 1008.5 |
| 20260505014338 | 76 | 140 | 2.0 | 6.0 | 0.00 | 0.00 | 0.00 | 74 | 1008.6 |
| 20260505013330 | 77 | 226 | 2.0 | 9.0 | 0.00 | 0.00 | 0.00 | 73 | 1008.8 |
| 20260505012341 | 77 | 134 | 3.0 | 8.0 | 0.00 | 0.00 | 0.00 | 72 | 1008.7 |
| 20260505011332 | 77 | 165 | 3.0 | 8.0 | 0.00 | 0.00 | 0.00 | 71 | 1008.7 |
| 20260505010339 | 78 | 174 | 4.0 | 9.0 | 0.00 | 0.00 | 0.00 | 70 | 1008.7 |
| 20260505005332 | 79 | 252 | 6.0 | 15.0 | 0.00 | 0.00 | 0.00 | 69 | 1008.6 |
| 20260505004323 | 79 | 216 | 4.0 | 12.0 | 0.00 | 0.00 | 0.00 | 68 | 1008.6 |
| 20260505003333 | 80 | 119 | 3.0 | 8.0 | 0.00 | 0.00 | 0.00 | 68 | 1008.6 |
| 20260505002344 | 80 | 148 | 5.0 | 12.0 | 0.00 | 0.00 | 0.00 | 67 | 1008.6 |
| 20260505001334 | 80 | 161 | 6.0 | 14.0 | 0.00 | 0.00 | 0.00 | 67 | 1008.6 |
| 20260505000345 | 81 | 158 | 6.0 | 16.0 | 0.00 | 0.00 | 0.00 | 66 | 1008.5 |
| 20260504235327 | 82 | 126 | 8.0 | 13.0 | 0.00 | 0.00 | 0.00 | 65 | 1008.6 |
| 20260504234348 | 82 | 162 | 7.0 | 14.0 | 0.00 | 0.00 | 0.00 | 65 | 1008.6 |
| 20260504233330 | 82 | 148 | 5.0 | 12.0 | 0.00 | 0.00 | 0.00 | 65 | 1008.7 |
| 20260504232350 | 82 | 151 | 6.0 | 13.0 | 0.00 | 0.00 | 0.00 | 65 | 1008.9 |
| 20260504231332 | 83 | 146 | 7.0 | 14.0 | 0.00 | 0.00 | 0.00 | 63 | 1008.9 |
| 20260504230336 | 84 | 177 | 9.0 | 18.0 | 0.00 | 0.00 | 0.00 | 62 | 1009.0 |